EJU529A LFPO-LFBO

Flight info

Callsign EJU529A
Flight time 1h 0m
Altitude 29000
Route ERIXU DCT ETAMO DCT GUERE DCT NARAK
Aircraft A320/M-SDE3FGHIRWY/LB1

Departure

Time 2026-05-04 14:08
Airport Paris-Orly Airport (LFPO)

Arrival

Time 2026-05-04 15:08
Airport Toulouse-Blagnac Airport (LFBO)
Time Latitude Longitude Altitude Speed Heading
2026-05-04 13:53 48.72934 2.35686 300 ft 0 kts 104°
2026-05-04 13:59 48.72934 2.35684 298 ft 2 kts 104°
2026-05-04 13:59 48.72941 2.35647 301 ft 4 kts 104°
2026-05-04 13:59 48.72953 2.35570 302 ft 2 kts 104°
2026-05-04 14:00 48.72960 2.35539 301 ft 4 kts 130°
2026-05-04 14:00 48.72990 2.35540 301 ft 0 kts 208°
2026-05-04 14:04 48.72885 2.35543 300 ft 13 kts 163°
2026-05-04 14:04 48.72796 2.35584 300 ft 13 kts 163°
2026-05-04 14:04 48.72705 2.35624 298 ft 14 kts 165°
2026-05-04 14:05 48.72512 2.35702 301 ft 15 kts 165°
2026-05-04 14:05 48.72432 2.35626 299 ft 13 kts 209°
2026-05-04 14:05 48.72345 2.35642 298 ft 12 kts 177°
2026-05-04 14:06 48.72266 2.35606 300 ft 11 kts 199°
2026-05-04 14:06 48.72197 2.35611 299 ft 10 kts 165°
2026-05-04 14:06 48.72138 2.35637 300 ft 8 kts 164°
2026-05-04 14:06 48.72081 2.35671 298 ft 11 kts 147°
2026-05-04 14:07 48.72027 2.35756 301 ft 11 kts 123°
2026-05-04 14:07 48.71988 2.35854 304 ft 11 kts 124°
2026-05-04 14:07 48.71958 2.35946 300 ft 9 kts 94°
2026-05-04 14:07 48.71979 2.36068 302 ft 26 kts 74°
2026-05-04 14:08 48.72102 2.36744 303 ft 103 kts 73°
2026-05-04 14:08 48.72351 2.38092 308 ft 159 kts 76°
2026-05-04 14:08 48.72648 2.39767 893 ft 166 kts 77°
2026-05-04 14:08 48.72945 2.41471 1670 ft 169 kts 76°
2026-05-04 14:09 48.73637 2.45238 2604 ft 207 kts 74°
2026-05-04 14:09 48.74009 2.47454 2995 ft 233 kts 83°
2026-05-04 14:10 48.74203 2.52792 4594 ft 262 kts 86°
2026-05-04 14:10 48.74277 2.55555 5668 ft 265 kts 91°
2026-05-04 14:10 48.73735 2.58189 6676 ft 275 kts 124°
2026-05-04 14:10 48.72245 2.60052 7739 ft 280 kts 153°
2026-05-04 14:11 48.70393 2.61031 8782 ft 284 kts 165°
2026-05-04 14:11 48.66507 2.61895 10763 ft 288 kts 186°
2026-05-04 14:11 48.64543 2.61190 11678 ft 294 kts 201°
2026-05-04 14:12 48.62693 2.59694 12252 ft 314 kts 216°
2026-05-04 14:12 48.61090 2.57280 12556 ft 338 kts 229°
2026-05-04 14:12 48.57937 2.51605 13681 ft 360 kts 229°
2026-05-04 14:13 48.56332 2.48671 14361 ft 365 kts 229°
2026-05-04 14:13 48.54712 2.45705 15097 ft 367 kts 229°
2026-05-04 14:13 48.53035 2.42793 15825 ft 369 kts 224°
2026-05-04 14:13 48.51056 2.40328 16546 ft 370 kts 213°
2026-05-04 14:14 48.48846 2.38325 17274 ft 372 kts 209°
2026-05-04 14:14 48.44350 2.34374 18672 ft 376 kts 209°
2026-05-04 14:14 48.42077 2.32376 19276 ft 378 kts 210°
2026-05-04 14:15 48.37523 2.28372 20547 ft 381 kts 210°
2026-05-04 14:15 48.32921 2.24341 21731 ft 384 kts 207°
2026-05-04 14:16 48.27811 2.21972 22844 ft 389 kts 186°
2026-05-04 14:16 48.25093 2.21948 23400 ft 393 kts 175°
2026-05-04 14:17 48.19650 2.23224 24347 ft 398 kts 172°
2026-05-04 14:17 48.16914 2.23894 24828 ft 399 kts 172°
2026-05-04 14:17 48.11453 2.25225 25732 ft 402 kts 172°
2026-05-04 14:18 48.08685 2.25875 26169 ft 403 kts 175°
2026-05-04 14:18 48.03065 2.26317 27032 ft 406 kts 179°
2026-05-04 14:19 47.97406 2.26673 27916 ft 409 kts 179°
2026-05-04 14:19 47.94562 2.26855 28356 ft 410 kts 179°
2026-05-04 14:19 47.91709 2.27039 28760 ft 411 kts 179°
2026-05-04 14:19 47.88845 2.27220 28952 ft 411 kts 179°
2026-05-04 14:20 47.86013 2.27397 28976 ft 405 kts 179°
2026-05-04 14:20 47.80410 2.27747 28944 ft 402 kts 179°
2026-05-04 14:21 47.72045 2.28288 28945 ft 400 kts 179°
2026-05-04 14:21 47.66489 2.28644 28942 ft 400 kts 179°
2026-05-04 14:22 47.60969 2.28983 28938 ft 399 kts 179°
2026-05-04 14:22 47.55415 2.29325 28932 ft 399 kts 179°
2026-05-04 14:23 47.47085 2.29850 28932 ft 399 kts 179°
2026-05-04 14:24 47.41534 2.30201 28925 ft 399 kts 179°
2026-05-04 14:24 47.35998 2.30542 28913 ft 398 kts 179°
2026-05-04 14:25 47.30450 2.30885 28910 ft 398 kts 179°
2026-05-04 14:25 47.22139 2.31399 28918 ft 399 kts 179°
2026-05-04 14:26 47.16593 2.31747 28921 ft 399 kts 179°
2026-05-04 14:26 47.11049 2.32091 28916 ft 399 kts 179°
2026-05-04 14:27 47.05489 2.32436 28922 ft 399 kts 179°
2026-05-04 14:27 46.99930 2.32775 28924 ft 400 kts 179°
2026-05-04 14:28 46.94378 2.33119 28919 ft 400 kts 179°
2026-05-04 14:28 46.88817 2.33459 28919 ft 400 kts 179°
2026-05-04 14:29 46.83271 2.33334 28922 ft 398 kts 190°
2026-05-04 14:29 46.77905 2.31381 28917 ft 397 kts 195°
2026-05-04 14:30 46.72592 2.29329 28920 ft 397 kts 195°
2026-05-04 14:31 46.64581 2.26268 28911 ft 397 kts 195°
2026-05-04 14:32 46.54795 2.22526 28908 ft 397 kts 195°
2026-05-04 14:32 46.49446 2.20483 28905 ft 398 kts 195°
2026-05-04 14:33 46.44090 2.18440 28908 ft 398 kts 195°
2026-05-04 14:33 46.38737 2.16404 28917 ft 398 kts 195°
2026-05-04 14:34 46.33383 2.14381 28900 ft 397 kts 195°
2026-05-04 14:34 46.28070 2.12366 28901 ft 397 kts 195°
2026-05-04 14:35 46.22725 2.10346 28912 ft 398 kts 195°
2026-05-04 14:35 46.17325 2.08633 28907 ft 398 kts 188°
2026-05-04 14:36 46.11820 2.07627 28898 ft 398 kts 188°
2026-05-04 14:36 46.06322 2.06609 28905 ft 399 kts 188°
2026-05-04 14:37 46.00826 2.05581 28904 ft 399 kts 188°
2026-05-04 14:37 45.95313 2.04550 28908 ft 399 kts 188°
2026-05-04 14:38 45.91180 2.03793 28906 ft 399 kts 188°
2026-05-04 14:38 45.87423 2.03113 28910 ft 400 kts 188°
2026-05-04 14:39 45.81906 2.02103 28913 ft 400 kts 188°
2026-05-04 14:39 45.76390 2.01092 28915 ft 400 kts 188°
2026-05-04 14:40 45.68132 1.99574 28910 ft 400 kts 188°
2026-05-04 14:40 45.62606 1.98569 28912 ft 401 kts 188°
2026-05-04 14:41 45.57070 1.97557 28910 ft 401 kts 188°
2026-05-04 14:42 45.45982 1.95549 28905 ft 402 kts 188°
2026-05-04 14:42 45.40433 1.94540 28909 ft 402 kts 188°
2026-05-04 14:43 45.34864 1.93533 28901 ft 403 kts 188°
2026-05-04 14:43 45.29297 1.92524 28916 ft 403 kts 188°
2026-05-04 14:44 45.23759 1.91540 28910 ft 404 kts 188°
2026-05-04 14:44 45.18185 1.90543 28906 ft 404 kts 188°
2026-05-04 14:45 45.15288 1.90023 28898 ft 404 kts 188°
2026-05-04 14:45 45.10954 1.89254 28894 ft 405 kts 188°
2026-05-04 14:46 45.05358 1.88245 28893 ft 406 kts 188°
2026-05-04 14:46 45.00079 1.87295 28896 ft 406 kts 188°
2026-05-04 14:47 44.97679 1.86868 28893 ft 406 kts 188°
2026-05-04 14:47 44.95627 1.86501 28896 ft 406 kts 188°
2026-05-04 14:48 44.90022 1.85510 28896 ft 406 kts 188°
2026-05-04 14:48 44.84409 1.84517 28898 ft 406 kts 188°
2026-05-04 14:49 44.79731 1.83689 28735 ft 412 kts 188°
2026-05-04 14:49 44.76868 1.83180 28457 ft 416 kts 188°
2026-05-04 14:49 44.73990 1.82670 28185 ft 417 kts 188°
2026-05-04 14:50 44.71104 1.82163 27920 ft 418 kts 188°
2026-05-04 14:50 44.67277 1.81490 27568 ft 419 kts 188°
2026-05-04 14:50 44.64381 1.80984 27259 ft 419 kts 188°
2026-05-04 14:50 44.62436 1.80645 26784 ft 415 kts 188°
2026-05-04 14:51 44.59576 1.80144 26025 ft 411 kts 188°
2026-05-04 14:51 44.56755 1.79651 25317 ft 408 kts 188°
2026-05-04 14:51 44.53951 1.79158 24607 ft 404 kts 188°
2026-05-04 14:51 44.51171 1.78666 23910 ft 401 kts 188°
2026-05-04 14:52 44.48419 1.78181 23183 ft 398 kts 188°
2026-05-04 14:52 44.45688 1.77704 22484 ft 393 kts 188°
2026-05-04 14:52 44.42995 1.77236 21852 ft 387 kts 188°
2026-05-04 14:52 44.40337 1.76774 21228 ft 382 kts 188°
2026-05-04 14:53 44.37713 1.76317 20649 ft 378 kts 188°
2026-05-04 14:53 44.35156 1.75875 20088 ft 373 kts 188°
2026-05-04 14:53 44.32561 1.75411 19537 ft 369 kts 190°
2026-05-04 14:53 44.30127 1.74560 19015 ft 364 kts 199°
2026-05-04 14:54 44.27808 1.73118 18531 ft 373 kts 208°
2026-05-04 14:54 44.25626 1.71137 18034 ft 379 kts 214°
2026-05-04 14:54 44.23472 1.69059 17534 ft 379 kts 214°
2026-05-04 14:54 44.21301 1.66982 17023 ft 378 kts 213°
2026-05-04 14:55 44.19137 1.64919 16560 ft 376 kts 214°
2026-05-04 14:55 44.16987 1.62872 16083 ft 373 kts 214°
2026-05-04 14:55 44.14849 1.60835 15595 ft 371 kts 214°
2026-05-04 14:55 44.12726 1.58811 15129 ft 369 kts 214°
2026-05-04 14:56 44.10616 1.56801 14659 ft 367 kts 214°
2026-05-04 14:56 44.08516 1.54800 14193 ft 365 kts 214°
2026-05-04 14:56 44.06428 1.52813 13727 ft 363 kts 214°
2026-05-04 14:56 44.04346 1.50839 13234 ft 362 kts 214°
2026-05-04 14:57 44.02268 1.48896 12801 ft 360 kts 211°
2026-05-04 14:57 43.99971 1.47550 12535 ft 359 kts 194°
2026-05-04 14:57 43.97482 1.47284 12276 ft 361 kts 175°
2026-05-04 14:57 43.95030 1.48006 12015 ft 362 kts 167°
2026-05-04 14:58 43.92599 1.48894 11764 ft 361 kts 166°
2026-05-04 14:58 43.90169 1.49790 11526 ft 360 kts 166°
2026-05-04 14:58 43.87784 1.50668 11276 ft 359 kts 167°
2026-05-04 14:58 43.85386 1.51549 10815 ft 355 kts 166°
2026-05-04 14:59 43.83047 1.52410 10646 ft 339 kts 167°
2026-05-04 14:59 43.80822 1.53228 10510 ft 323 kts 167°
2026-05-04 14:59 43.76655 1.54747 10269 ft 297 kts 167°
2026-05-04 15:00 43.74684 1.55460 10075 ft 289 kts 167°
2026-05-04 15:00 43.72758 1.56158 9842 ft 284 kts 167°
2026-05-04 15:00 43.70849 1.56848 9716 ft 283 kts 167°
2026-05-04 15:01 43.67029 1.58228 9127 ft 286 kts 167°
2026-05-04 15:01 43.65106 1.58923 8738 ft 284 kts 166°
2026-05-04 15:01 43.63205 1.59610 8346 ft 282 kts 166°
2026-05-04 15:01 43.61312 1.60293 7921 ft 280 kts 167°
2026-05-04 15:02 43.59440 1.60970 7640 ft 274 kts 166°
2026-05-04 15:02 43.57632 1.61624 7487 ft 263 kts 166°
2026-05-04 15:02 43.55874 1.62200 7205 ft 258 kts 173°
2026-05-04 15:02 43.54099 1.62260 6914 ft 253 kts 187°
2026-05-04 15:03 43.52361 1.61968 6548 ft 251 kts 188°
2026-05-04 15:03 43.50639 1.61569 6147 ft 251 kts 198°
2026-05-04 15:03 43.49117 1.60446 5767 ft 249 kts 219°
2026-05-04 15:03 43.47992 1.58648 5344 ft 250 kts 240°
2026-05-04 15:04 43.47404 1.56394 4814 ft 253 kts 256°
2026-05-04 15:04 43.47162 1.54036 4355 ft 244 kts 276°
2026-05-04 15:04 43.47796 1.51939 4102 ft 239 kts 311°
2026-05-04 15:04 43.49064 1.50474 3774 ft 238 kts 323°
2026-05-04 15:05 43.50361 1.49138 3464 ft 232 kts 323°
2026-05-04 15:05 43.51628 1.47843 3048 ft 222 kts 323°
2026-05-04 15:05 43.52827 1.46621 2756 ft 208 kts 323°
2026-05-04 15:05 43.53950 1.45463 2478 ft 195 kts 323°
2026-05-04 15:06 43.55005 1.44371 2241 ft 183 kts 322°
2026-05-04 15:06 43.55972 1.43364 1998 ft 165 kts 323°
2026-05-04 15:06 43.56859 1.42447 1742 ft 155 kts 322°
2026-05-04 15:07 43.58555 1.40671 1387 ft 150 kts 323°
2026-05-04 15:07 43.59385 1.39818 1153 ft 148 kts 322°
2026-05-04 15:07 43.60219 1.38962 998 ft 150 kts 321°
2026-05-04 15:07 43.61050 1.38098 774 ft 147 kts 319°
2026-05-04 15:08 43.61840 1.37272 555 ft 139 kts 320°
2026-05-04 15:08 43.62553 1.36524 485 ft 109 kts 323°
2026-05-04 15:08 43.63015 1.36048 492 ft 58 kts 323°
2026-05-04 15:08 43.63227 1.35827 491 ft 30 kts 322°
2026-05-04 15:09 43.63389 1.35657 486 ft 29 kts 323°
2026-05-04 15:09 43.63525 1.35519 483 ft 21 kts 331°
2026-05-04 15:09 43.63640 1.35609 489 ft 21 kts 52°
2026-05-04 15:10 43.63800 1.35905 490 ft 17 kts 53°
2026-05-04 15:10 43.63777 1.36033 489 ft 15 kts 141°
2026-05-04 15:10 43.63624 1.36191 485 ft 13 kts 142°
2026-05-04 15:11 43.63555 1.36263 491 ft 12 kts 143°
2026-05-04 15:11 43.63489 1.36331 489 ft 11 kts 143°
2026-05-04 15:11 43.63428 1.36394 489 ft 11 kts 143°
2026-05-04 15:11 43.63369 1.36454 490 ft 10 kts 143°
2026-05-04 15:12 43.63313 1.36511 489 ft 10 kts 143°
2026-05-04 15:12 43.63261 1.36565 489 ft 9 kts 142°
2026-05-04 15:12 43.63201 1.36627 489 ft 17 kts 142°
2026-05-04 15:12 43.63072 1.36764 488 ft 28 kts 141°
2026-05-04 15:13 43.62954 1.36886 489 ft 18 kts 144°
2026-05-04 15:13 43.62849 1.36995 489 ft 20 kts 140°
2026-05-04 15:13 43.62853 1.37106 487 ft 12 kts 51°
2026-05-04 15:13 43.62905 1.37204 486 ft 13 kts 56°
2026-05-04 15:14 43.62964 1.37298 488 ft 10 kts 43°
2026-05-04 15:14 43.62980 1.37319 488 ft 0 kts 43°